[Date Prev][Date Next][Thread Prev][Thread Next] - [Date Index][Thread Index][Author Index]
2 Line ISS Keps 12-13
- Subject: [sarex] 2 Line ISS Keps 12-13
- From: "Dave Larsen PhD" <doc@xxxxxxxxxxx>
- Date: Mon, 12 Dec 2005 20:12:58 -0800
ISS
1 25544U 98067A 05346.80167824 .00023436 00000-0 17161-3 0 9339
2 25544 051.6447 065.4803 0010119 033.0014 121.2613 15.73011378403793
----
Via the sarex mailing list at AMSAT.ORG courtesy of AMSAT-NA.
To unsubscribe, send "unsubscribe sarex" to Majordomo@amsat.org
AMSAT Home